Year,Month,Day,Hour,Minute,Value (Times are PST for temperature in C)
2020,08,30,00,00,13.70
2020,08,30,00,01,13.70
2020,08,30,00,02,13.70
2020,08,30,00,03,13.70
2020,08,30,00,04,13.70
2020,08,30,00,05,13.60
2020,08,30,00,06,13.60
2020,08,30,00,07,13.60
2020,08,30,00,08,13.60
2020,08,30,00,09,13.60
2020,08,30,00,10,13.60
2020,08,30,00,11,13.60
2020,08,30,00,12,13.60
2020,08,30,00,13,13.60
2020,08,30,00,14,13.60
2020,08,30,00,15,13.60
2020,08,30,00,16,13.60
2020,08,30,00,17,13.50
2020,08,30,00,18,13.50
2020,08,30,00,19,13.50
2020,08,30,00,20,13.40
2020,08,30,00,21,13.40
2020,08,30,00,22,13.40
2020,08,30,00,23,13.40
2020,08,30,00,24,13.40
2020,08,30,00,25,13.40
2020,08,30,00,26,13.40
2020,08,30,00,27,13.40
2020,08,30,00,28,13.40
2020,08,30,00,29,13.30
2020,08,30,00,30,13.30
2020,08,30,00,31,13.30
2020,08,30,00,32,13.30
2020,08,30,00,33,13.30
2020,08,30,00,34,13.20
2020,08,30,00,35,13.20
2020,08,30,00,36,13.20
2020,08,30,00,37,13.20
2020,08,30,00,38,13.20
2020,08,30,00,39,13.10
2020,08,30,00,40,13.10
2020,08,30,00,41,13.10
2020,08,30,00,42,13.10
2020,08,30,00,43,13.00
2020,08,30,00,44,13.00
2020,08,30,00,45,12.90
2020,08,30,00,46,12.90
2020,08,30,00,47,12.90
2020,08,30,00,48,12.90
2020,08,30,00,49,12.90
2020,08,30,00,50,12.80
2020,08,30,00,51,12.80
2020,08,30,00,52,12.80
2020,08,30,00,53,12.80
2020,08,30,00,54,12.70
2020,08,30,00,55,12.70
2020,08,30,00,56,12.70
2020,08,30,00,57,12.70
2020,08,30,00,58,12.70
2020,08,30,00,59,12.60
2020,08,30,01,00,12.60
2020,08,30,01,01,12.70
2020,08,30,01,02,12.70
2020,08,30,01,03,12.70
2020,08,30,01,04,12.70
2020,08,30,01,05,12.70
2020,08,30,01,06,12.70
2020,08,30,01,07,12.70
2020,08,30,01,08,12.70
2020,08,30,01,09,12.70
2020,08,30,01,10,12.70
2020,08,30,01,11,12.70
2020,08,30,01,12,12.70
2020,08,30,01,13,12.70
2020,08,30,01,14,12.70
2020,08,30,01,15,12.70
2020,08,30,01,16,12.60
2020,08,30,01,17,12.60
2020,08,30,01,18,12.60
2020,08,30,01,19,12.60
2020,08,30,01,20,12.60
2020,08,30,01,21,12.50
2020,08,30,01,22,12.50
2020,08,30,01,23,12.50
2020,08,30,01,24,12.50
2020,08,30,01,25,12.40
2020,08,30,01,26,12.40
2020,08,30,01,27,12.40
2020,08,30,01,28,12.40
2020,08,30,01,29,12.40
2020,08,30,01,30,12.40
2020,08,30,01,31,12.40
2020,08,30,01,32,12.40
2020,08,30,01,33,12.40
2020,08,30,01,34,12.40
2020,08,30,01,35,12.40
2020,08,30,01,36,12.40
2020,08,30,01,37,12.40
2020,08,30,01,38,12.40
2020,08,30,01,39,12.40
2020,08,30,01,40,12.30
2020,08,30,01,41,12.30
2020,08,30,01,42,12.30
2020,08,30,01,43,12.30
2020,08,30,01,45,12.20
2020,08,30,01,46,12.20
2020,08,30,01,47,12.20
2020,08,30,01,48,12.20
2020,08,30,01,49,12.10
2020,08,30,01,50,12.10
2020,08,30,01,51,12.10
2020,08,30,01,52,12.10
2020,08,30,01,53,12.10
2020,08,30,01,54,12.10
2020,08,30,01,55,12.10
2020,08,30,01,56,12.10
2020,08,30,01,57,12.00
2020,08,30,01,58,12.00
2020,08,30,01,59,11.90
2020,08,30,02,00,11.90
2020,08,30,02,01,11.90
2020,08,30,02,02,11.90
2020,08,30,02,03,11.80
2020,08,30,02,04,11.80
2020,08,30,02,05,11.80
2020,08,30,02,06,11.80
2020,08,30,02,07,11.80
2020,08,30,02,08,11.80
2020,08,30,02,09,11.70
2020,08,30,02,10,11.70
2020,08,30,02,11,11.70
2020,08,30,02,12,11.70
2020,08,30,02,13,11.70
2020,08,30,02,14,11.60
2020,08,30,02,15,11.60
2020,08,30,02,17,11.60
2020,08,30,02,18,11.60
2020,08,30,02,19,11.60
2020,08,30,02,20,11.60
2020,08,30,02,21,11.50
2020,08,30,02,22,11.50
2020,08,30,02,23,11.50
2020,08,30,02,24,11.50
2020,08,30,02,25,11.50
2020,08,30,02,26,11.40
2020,08,30,02,27,11.40
2020,08,30,02,28,11.40
2020,08,30,02,29,11.40
2020,08,30,02,30,11.40
2020,08,30,02,31,11.40
2020,08,30,02,32,11.40
2020,08,30,02,33,11.40
2020,08,30,02,34,11.30
2020,08,30,02,35,11.30
2020,08,30,02,36,11.30
2020,08,30,02,37,11.30
2020,08,30,02,38,11.30
2020,08,30,02,39,11.30
2020,08,30,02,40,11.30
2020,08,30,02,41,11.30
2020,08,30,02,42,11.30
2020,08,30,02,43,11.30
2020,08,30,02,44,11.30
2020,08,30,02,45,11.20
2020,08,30,02,46,11.20
2020,08,30,02,47,11.20
2020,08,30,02,48,11.20
2020,08,30,02,49,11.20
2020,08,30,02,50,11.20
2020,08,30,02,51,11.10
2020,08,30,02,52,11.10
2020,08,30,02,53,11.10
2020,08,30,02,54,11.10
2020,08,30,02,55,11.10
2020,08,30,02,56,11.10
2020,08,30,02,57,11.10
2020,08,30,02,58,11.10
2020,08,30,02,59,11.00
2020,08,30,03,00,11.00
2020,08,30,03,01,11.00
2020,08,30,03,02,11.00
2020,08,30,03,03,10.90
2020,08,30,03,04,10.90
2020,08,30,03,05,10.90
2020,08,30,03,06,10.90
2020,08,30,03,07,10.90
2020,08,30,03,08,10.90
2020,08,30,03,09,10.90
2020,08,30,03,10,10.90
2020,08,30,03,11,10.90
2020,08,30,03,12,10.90
2020,08,30,03,13,10.80
2020,08,30,03,14,10.80
2020,08,30,03,15,10.80
2020,08,30,03,16,10.80
2020,08,30,03,17,10.80
2020,08,30,03,18,10.80
2020,08,30,03,19,10.80
2020,08,30,03,20,10.80
2020,08,30,03,21,10.80
2020,08,30,03,22,10.80
2020,08,30,03,23,10.80
2020,08,30,03,24,10.80
2020,08,30,03,25,10.80
2020,08,30,03,26,10.80
2020,08,30,03,27,10.70
2020,08,30,03,28,10.70
2020,08,30,03,29,10.70
2020,08,30,03,30,10.70
2020,08,30,03,31,10.70
2020,08,30,03,32,10.70
2020,08,30,03,33,10.70
2020,08,30,03,34,10.70
2020,08,30,03,35,10.70
2020,08,30,03,36,10.70
2020,08,30,03,37,10.60
2020,08,30,03,38,10.60
2020,08,30,03,39,10.60
2020,08,30,03,40,10.60
2020,08,30,03,41,10.60
2020,08,30,03,42,10.60
2020,08,30,03,43,10.60
2020,08,30,03,44,10.60
2020,08,30,03,45,10.50
2020,08,30,03,46,10.50
2020,08,30,03,47,10.50
2020,08,30,03,48,10.40
2020,08,30,03,49,10.40
2020,08,30,03,50,10.40
2020,08,30,03,51,10.40
2020,08,30,03,52,10.40
2020,08,30,03,53,10.40
2020,08,30,03,54,10.30
2020,08,30,03,55,10.30
2020,08,30,03,56,10.30
2020,08,30,03,57,10.30
2020,08,30,03,58,10.30
2020,08,30,03,59,10.30
2020,08,30,04,00,10.30
2020,08,30,04,01,10.30
2020,08,30,04,02,10.30
2020,08,30,04,03,10.30
2020,08,30,04,04,10.30
2020,08,30,04,05,10.20
2020,08,30,04,06,10.20
2020,08,30,04,07,10.20
2020,08,30,04,08,10.20
2020,08,30,04,09,10.20
2020,08,30,04,10,10.20
2020,08,30,04,11,10.20
2020,08,30,04,12,10.20
2020,08,30,04,13,10.20
2020,08,30,04,14,10.10
2020,08,30,04,15,10.10
2020,08,30,04,16,10.10
2020,08,30,04,17,10.10
2020,08,30,04,18,10.10
2020,08,30,04,19,10.10
2020,08,30,04,20,10.10
2020,08,30,04,21,10.10
2020,08,30,04,22,10.10
2020,08,30,04,23,10.10
2020,08,30,04,24,10.10
2020,08,30,04,25,10.10
2020,08,30,04,26,10.10
2020,08,30,04,27,10.10
2020,08,30,04,28,10.10
2020,08,30,04,29,10.10
2020,08,30,04,30,10.10
2020,08,30,04,31,10.10
2020,08,30,04,32,10.10
2020,08,30,04,33,10.10
2020,08,30,04,34,10.10
2020,08,30,04,35,10.10
2020,08,30,04,36,10.10
2020,08,30,04,37,10.10
2020,08,30,04,38,10.00
2020,08,30,04,39,10.00
2020,08,30,04,40,10.00
2020,08,30,04,41,10.00
2020,08,30,04,42,10.00
2020,08,30,04,43,9.90
2020,08,30,04,44,10.00
2020,08,30,04,45,9.90
2020,08,30,04,46,9.90
2020,08,30,04,47,9.90
2020,08,30,04,48,10.00
2020,08,30,04,49,10.00
2020,08,30,04,50,10.00
2020,08,30,04,51,10.00
2020,08,30,04,52,10.10
2020,08,30,04,53,10.10
2020,08,30,04,54,10.10
2020,08,30,04,55,10.10
2020,08,30,04,56,10.10
2020,08,30,04,57,10.10
2020,08,30,04,58,10.10
2020,08,30,04,59,10.10
2020,08,30,05,00,10.10
2020,08,30,05,01,10.10
2020,08,30,05,02,10.00
2020,08,30,05,03,9.90
2020,08,30,05,04,9.90
2020,08,30,05,05,9.90
2020,08,30,05,06,9.90
2020,08,30,05,07,9.80
2020,08,30,05,08,9.80
2020,08,30,05,09,9.80
2020,08,30,05,10,9.80
2020,08,30,05,11,9.80
2020,08,30,05,12,9.80
2020,08,30,05,13,9.80
2020,08,30,05,14,9.70
2020,08,30,05,15,9.70
2020,08,30,05,16,9.80
2020,08,30,05,17,9.70
2020,08,30,05,18,9.70
2020,08,30,05,19,9.70
2020,08,30,05,20,9.70
2020,08,30,05,21,9.70
2020,08,30,05,22,9.70
2020,08,30,05,23,9.80
2020,08,30,05,24,9.70
2020,08,30,05,25,9.70
2020,08,30,05,26,9.70
2020,08,30,05,27,9.70
2020,08,30,05,28,9.70
2020,08,30,05,29,9.70
2020,08,30,05,30,9.70
2020,08,30,05,31,9.70
2020,08,30,05,32,9.70
2020,08,30,05,33,9.70
2020,08,30,05,34,9.70
2020,08,30,05,35,9.70
2020,08,30,05,36,9.60
2020,08,30,05,37,9.60
2020,08,30,05,38,9.60
2020,08,30,05,39,9.60
2020,08,30,05,40,9.60
2020,08,30,05,41,9.60
2020,08,30,05,42,9.60
2020,08,30,05,43,9.60
2020,08,30,05,44,9.50
2020,08,30,05,45,9.50
2020,08,30,05,46,9.50
2020,08,30,05,47,9.40
2020,08,30,05,48,9.40
2020,08,30,05,49,9.40
2020,08,30,05,50,9.40
2020,08,30,05,51,9.40
2020,08,30,05,52,9.40
2020,08,30,05,53,9.40
2020,08,30,05,54,9.40
2020,08,30,05,55,9.40
2020,08,30,05,56,9.40
2020,08,30,05,57,9.40
2020,08,30,05,58,9.40
2020,08,30,05,59,9.40
2020,08,30,06,00,9.40
2020,08,30,06,01,9.40
2020,08,30,06,02,9.40
2020,08,30,06,03,9.30
2020,08,30,06,04,9.30
2020,08,30,06,05,9.30
2020,08,30,06,06,9.30
2020,08,30,06,07,9.30
2020,08,30,06,08,9.30
2020,08,30,06,09,9.30
2020,08,30,06,10,9.30
2020,08,30,06,11,9.30
2020,08,30,06,12,9.30
2020,08,30,06,13,9.30
2020,08,30,06,14,9.20
2020,08,30,06,15,9.20
2020,08,30,06,16,9.20
2020,08,30,06,17,9.20
2020,08,30,06,18,9.20
2020,08,30,06,19,9.20
2020,08,30,06,20,9.20
2020,08,30,06,22,9.20
2020,08,30,06,24,9.10
2020,08,30,06,25,9.10
2020,08,30,06,26,9.10
2020,08,30,06,27,9.10
2020,08,30,06,28,9.10
2020,08,30,06,29,9.10
2020,08,30,06,30,9.00
2020,08,30,06,31,9.00
2020,08,30,06,33,9.00
2020,08,30,06,34,9.00
2020,08,30,06,35,9.00
2020,08,30,06,36,9.00
2020,08,30,06,37,9.00
2020,08,30,06,38,8.90
2020,08,30,06,39,8.90
2020,08,30,06,40,8.90
2020,08,30,06,41,8.90
2020,08,30,06,42,8.90
2020,08,30,06,43,8.90
2020,08,30,06,44,8.90
2020,08,30,06,45,8.90
2020,08,30,06,46,8.90
2020,08,30,06,47,8.90
2020,08,30,06,48,8.90
2020,08,30,06,49,8.90
2020,08,30,06,50,8.90
2020,08,30,06,51,8.90
2020,08,30,06,52,8.90
2020,08,30,06,53,8.90
2020,08,30,06,54,8.90
2020,08,30,06,55,8.90
2020,08,30,06,56,8.90
2020,08,30,06,57,8.90
2020,08,30,06,58,8.90
2020,08,30,06,59,8.90
2020,08,30,07,00,8.90
2020,08,30,07,01,8.90
2020,08,30,07,02,8.90
2020,08,30,07,03,8.90
2020,08,30,07,04,8.90
2020,08,30,07,05,8.90
2020,08,30,07,07,8.90
2020,08,30,07,08,8.90
2020,08,30,07,09,8.90
2020,08,30,07,10,8.90
2020,08,30,07,11,8.90
2020,08,30,07,12,8.90
2020,08,30,07,13,8.90
2020,08,30,07,14,8.80
2020,08,30,07,15,8.80
2020,08,30,07,16,8.90
2020,08,30,07,17,8.90
2020,08,30,07,18,8.90
2020,08,30,07,19,8.90
2020,08,30,07,20,8.90
2020,08,30,07,21,8.90
2020,08,30,07,22,8.90
2020,08,30,07,23,8.90
2020,08,30,07,24,8.80
2020,08,30,07,25,8.80
2020,08,30,07,26,8.80
2020,08,30,07,27,8.80
2020,08,30,07,28,8.80
2020,08,30,07,29,8.90
2020,08,30,07,30,8.90
2020,08,30,07,31,8.90
2020,08,30,07,32,8.90
2020,08,30,07,33,9.00
2020,08,30,07,34,9.00
2020,08,30,07,35,9.10
2020,08,30,07,36,9.10
2020,08,30,07,37,9.20
2020,08,30,07,39,9.30
2020,08,30,07,40,9.40
2020,08,30,07,41,9.40
2020,08,30,07,42,9.50
2020,08,30,07,43,9.60
2020,08,30,07,44,9.70
2020,08,30,07,45,9.80
2020,08,30,07,46,9.80
2020,08,30,07,47,9.90
2020,08,30,07,48,9.90
2020,08,30,07,49,10.00
2020,08,30,07,50,10.10
2020,08,30,07,51,10.10
2020,08,30,07,52,10.10
2020,08,30,07,53,10.20
2020,08,30,07,54,10.20
2020,08,30,07,55,10.20
2020,08,30,07,56,10.30
2020,08,30,07,57,10.30
2020,08,30,07,58,10.40
2020,08,30,07,59,10.40
2020,08,30,08,00,10.50
2020,08,30,08,01,10.50
2020,08,30,08,02,10.60
2020,08,30,08,03,10.60
2020,08,30,08,04,10.70
2020,08,30,08,05,10.70
2020,08,30,08,06,10.80
2020,08,30,08,07,10.80
2020,08,30,08,08,10.90
2020,08,30,08,09,10.90
2020,08,30,08,10,11.00
2020,08,30,08,11,11.10
2020,08,30,08,12,11.10
2020,08,30,08,13,11.20
2020,08,30,08,14,11.20
2020,08,30,08,15,11.20
2020,08,30,08,16,11.30
2020,08,30,08,17,11.30
2020,08,30,08,18,11.40
2020,08,30,08,19,11.40
2020,08,30,08,20,11.50
2020,08,30,08,21,11.60
2020,08,30,08,22,11.60
2020,08,30,08,23,11.70
2020,08,30,08,24,11.70
2020,08,30,08,25,11.70
2020,08,30,08,26,11.70
2020,08,30,08,27,11.80
2020,08,30,08,28,11.80
2020,08,30,08,30,11.80
2020,08,30,08,31,11.90
2020,08,30,08,32,11.90
2020,08,30,08,33,12.00
2020,08,30,08,34,12.00
2020,08,30,08,35,12.10
2020,08,30,08,36,12.10
2020,08,30,08,37,12.20
2020,08,30,08,38,12.20
2020,08,30,08,39,12.20
2020,08,30,08,40,12.30
2020,08,30,08,41,12.30
2020,08,30,08,42,12.30
2020,08,30,08,43,12.30
2020,08,30,08,44,12.40
2020,08,30,08,45,12.40
2020,08,30,08,47,12.50
2020,08,30,08,48,12.50
2020,08,30,08,49,12.50
2020,08,30,08,50,12.60
2020,08,30,08,51,12.60
2020,08,30,08,52,12.60
2020,08,30,08,53,12.70
2020,08,30,08,54,12.70
2020,08,30,08,55,12.80
2020,08,30,08,56,12.80
2020,08,30,08,57,12.80
2020,08,30,08,58,12.90
2020,08,30,08,59,13.00
2020,08,30,09,00,13.10
2020,08,30,09,01,13.20
2020,08,30,09,02,13.30
2020,08,30,09,03,13.40
2020,08,30,09,04,13.50
2020,08,30,09,05,13.60
2020,08,30,09,06,13.70
2020,08,30,09,07,13.80
2020,08,30,09,08,13.80
2020,08,30,09,09,13.90
2020,08,30,09,10,13.90
2020,08,30,09,11,13.90
2020,08,30,09,12,14.00
2020,08,30,09,13,14.00
2020,08,30,09,14,14.10
2020,08,30,09,15,14.10
2020,08,30,09,16,14.10
2020,08,30,09,17,14.20
2020,08,30,09,18,14.20
2020,08,30,09,19,14.20
2020,08,30,09,20,14.30
2020,08,30,09,21,14.30
2020,08,30,09,22,14.30
2020,08,30,09,23,14.20
2020,08,30,09,24,14.20
2020,08,30,09,25,14.20
2020,08,30,09,26,14.20
2020,08,30,09,27,14.20
2020,08,30,09,28,14.20
2020,08,30,09,30,14.20
2020,08,30,09,31,14.10
2020,08,30,09,32,14.10
2020,08,30,09,33,14.10
2020,08,30,09,34,14.10
2020,08,30,09,35,14.10
2020,08,30,09,36,14.10
2020,08,30,09,37,14.10
2020,08,30,09,38,14.20
2020,08,30,09,39,14.20
2020,08,30,09,40,14.30
2020,08,30,09,41,14.30
2020,08,30,09,42,14.30
2020,08,30,09,43,14.30
2020,08,30,09,44,14.30
2020,08,30,09,45,14.40
2020,08,30,09,46,14.40
2020,08,30,09,47,14.40
2020,08,30,09,48,14.40
2020,08,30,09,49,14.60
2020,08,30,09,50,14.60
2020,08,30,09,51,14.70
2020,08,30,09,52,14.70
2020,08,30,09,53,14.80
2020,08,30,09,54,14.80
2020,08,30,09,55,14.90
2020,08,30,09,56,15.00
2020,08,30,09,57,15.10
2020,08,30,09,58,15.10
2020,08,30,09,59,15.20
2020,08,30,10,00,15.20
2020,08,30,10,01,15.30
2020,08,30,10,02,15.30
2020,08,30,10,03,15.30
2020,08,30,10,04,15.30
2020,08,30,10,05,15.30
2020,08,30,10,06,15.30
2020,08,30,10,07,15.30
2020,08,30,10,08,15.40
2020,08,30,10,09,15.40
2020,08,30,10,10,15.40
2020,08,30,10,11,15.40
2020,08,30,10,12,15.50
2020,08,30,10,13,15.60
2020,08,30,10,14,15.60
2020,08,30,10,15,15.70
2020,08,30,10,16,15.80
2020,08,30,10,17,15.80
2020,08,30,10,18,15.90
2020,08,30,10,19,15.90
2020,08,30,10,21,16.10
2020,08,30,10,22,16.20
2020,08,30,10,23,16.20
2020,08,30,10,24,16.30
2020,08,30,10,25,16.30
2020,08,30,10,26,16.40
2020,08,30,10,27,16.40
2020,08,30,10,28,16.50
2020,08,30,10,29,16.60
2020,08,30,10,30,16.60
2020,08,30,10,31,16.60
2020,08,30,10,32,16.60
2020,08,30,10,33,16.60
2020,08,30,10,34,16.60
2020,08,30,10,35,16.70
2020,08,30,10,37,16.80
2020,08,30,10,38,16.80
2020,08,30,10,39,16.80
2020,08,30,10,40,16.80
2020,08,30,10,41,16.70
2020,08,30,10,42,16.70
2020,08,30,10,43,16.70
2020,08,30,10,44,16.60
2020,08,30,10,45,16.60
2020,08,30,10,47,16.60
2020,08,30,10,48,16.50
2020,08,30,10,49,16.40
2020,08,30,10,50,16.40
2020,08,30,10,51,16.50
2020,08,30,10,52,16.50
2020,08,30,10,53,16.60
2020,08,30,10,55,16.60
2020,08,30,10,56,16.60
2020,08,30,10,57,16.70
2020,08,30,10,58,16.70
2020,08,30,10,59,16.80
2020,08,30,11,00,16.90
2020,08,30,11,01,17.10
2020,08,30,11,02,17.20
2020,08,30,11,03,17.30
2020,08,30,11,04,17.30
2020,08,30,11,05,17.30
2020,08,30,11,06,17.30
2020,08,30,11,07,17.30
2020,08,30,11,08,17.20
2020,08,30,11,10,17.20
2020,08,30,11,11,17.30
2020,08,30,11,12,17.40
2020,08,30,11,13,17.40
2020,08,30,11,14,17.60
2020,08,30,11,15,17.70
2020,08,30,11,16,17.70
2020,08,30,11,17,17.80
2020,08,30,11,18,17.90
2020,08,30,11,19,18.00
2020,08,30,11,20,18.10
2020,08,30,11,21,18.10
2020,08,30,11,22,18.10
2020,08,30,11,23,18.20
2020,08,30,11,24,18.20
2020,08,30,11,25,18.20
2020,08,30,11,26,18.30
2020,08,30,11,27,18.40
2020,08,30,11,28,18.50
2020,08,30,11,29,18.60
2020,08,30,11,30,18.60
2020,08,30,11,31,18.70
2020,08,30,11,32,18.80
2020,08,30,11,33,18.80
2020,08,30,11,34,18.90
2020,08,30,11,35,18.90
2020,08,30,11,36,18.90
2020,08,30,11,37,18.90
2020,08,30,11,38,18.80
2020,08,30,11,39,18.80
2020,08,30,11,40,18.80
2020,08,30,11,41,18.70
2020,08,30,11,42,18.70
2020,08,30,11,43,18.70
2020,08,30,11,44,18.70
2020,08,30,11,45,18.70
2020,08,30,11,46,18.80
2020,08,30,11,47,18.80
2020,08,30,11,48,18.80
2020,08,30,11,49,18.90
2020,08,30,11,50,19.00
2020,08,30,11,51,19.10
2020,08,30,11,52,19.20
2020,08,30,11,53,19.30
2020,08,30,11,55,19.30
2020,08,30,11,56,19.30
2020,08,30,11,57,19.40
2020,08,30,11,58,19.40
2020,08,30,11,59,19.40
2020,08,30,12,00,19.40
2020,08,30,12,01,19.50
2020,08,30,12,02,19.50
2020,08,30,12,03,19.50
2020,08,30,12,04,19.40
2020,08,30,12,05,19.40
2020,08,30,12,06,19.40
2020,08,30,12,07,19.50
2020,08,30,12,08,19.60
2020,08,30,12,09,19.70
2020,08,30,12,10,19.70
2020,08,30,12,11,19.80
2020,08,30,12,12,19.80
2020,08,30,12,13,19.80
2020,08,30,12,14,19.80
2020,08,30,12,15,19.90
2020,08,30,12,16,19.90
2020,08,30,12,17,20.10
2020,08,30,12,18,20.10
2020,08,30,12,19,20.20
2020,08,30,12,20,20.30
2020,08,30,12,21,20.30
2020,08,30,12,22,20.40
2020,08,30,12,23,20.40
2020,08,30,12,24,20.50
2020,08,30,12,25,20.50
2020,08,30,12,26,20.60
2020,08,30,12,27,20.70
2020,08,30,12,28,20.70
2020,08,30,12,29,20.80
2020,08,30,12,30,20.80
2020,08,30,12,31,20.90
2020,08,30,12,32,20.90
2020,08,30,12,33,20.90
2020,08,30,12,34,21.00
2020,08,30,12,35,21.10
2020,08,30,12,36,21.10
2020,08,30,12,37,21.10
2020,08,30,12,38,21.10
2020,08,30,12,39,21.10
2020,08,30,12,40,21.10
2020,08,30,12,41,21.20
2020,08,30,12,42,21.20
2020,08,30,12,43,21.20
2020,08,30,12,44,21.20
2020,08,30,12,45,21.30
2020,08,30,12,46,21.30
2020,08,30,12,47,21.40
2020,08,30,12,48,21.40
2020,08,30,12,49,21.40
2020,08,30,12,50,21.50
2020,08,30,12,51,21.50
2020,08,30,12,52,21.50
2020,08,30,12,53,21.50
2020,08,30,12,54,21.40
2020,08,30,12,55,21.40
2020,08,30,12,56,21.40
2020,08,30,12,57,21.40
2020,08,30,12,58,21.40
2020,08,30,12,59,21.40
2020,08,30,13,00,21.30
2020,08,30,13,01,21.30
2020,08,30,13,02,21.20
2020,08,30,13,03,21.20
2020,08,30,13,05,21.10
2020,08,30,13,06,20.90
2020,08,30,13,07,20.90
2020,08,30,13,08,20.90
2020,08,30,13,09,21.00
2020,08,30,13,10,21.00
2020,08,30,13,12,21.10
2020,08,30,13,13,21.20
2020,08,30,13,14,21.30
2020,08,30,13,15,21.40
2020,08,30,13,16,21.40
2020,08,30,13,17,21.60
2020,08,30,13,18,21.60
2020,08,30,13,19,21.60
2020,08,30,13,20,21.70
2020,08,30,13,21,21.70
2020,08,30,13,22,21.80
2020,08,30,13,23,21.90
2020,08,30,13,24,21.90
2020,08,30,13,25,21.90
2020,08,30,13,26,21.90
2020,08,30,13,27,21.90
2020,08,30,13,28,22.00
2020,08,30,13,29,22.00
2020,08,30,13,30,22.00
2020,08,30,13,31,22.00
2020,08,30,13,33,21.90
2020,08,30,13,34,21.90
2020,08,30,13,35,21.80
2020,08,30,13,36,21.70
2020,08,30,13,37,21.60
2020,08,30,13,38,21.60
2020,08,30,13,39,21.50
2020,08,30,13,40,21.60
2020,08,30,13,41,21.70
2020,08,30,13,42,21.70
2020,08,30,13,43,21.70
2020,08,30,13,44,21.70
2020,08,30,13,45,21.80
2020,08,30,13,46,21.80
2020,08,30,13,47,21.80
2020,08,30,13,48,21.80
2020,08,30,13,49,21.90
2020,08,30,13,50,21.90
2020,08,30,13,51,21.80
2020,08,30,13,52,21.80
2020,08,30,13,53,21.80
2020,08,30,13,54,21.80
2020,08,30,13,55,21.80
2020,08,30,13,56,21.70
2020,08,30,13,57,21.70
2020,08,30,13,58,21.70
2020,08,30,13,59,21.70
2020,08,30,14,01,21.50
2020,08,30,14,02,21.40
2020,08,30,14,03,21.30
2020,08,30,14,04,21.30
2020,08,30,14,05,21.20
2020,08,30,14,06,21.20
2020,08,30,14,07,21.20
2020,08,30,14,08,21.10
2020,08,30,14,09,21.10
2020,08,30,14,10,21.00
2020,08,30,14,11,20.90
2020,08,30,14,12,20.90
2020,08,30,14,13,20.90
2020,08,30,14,14,20.80
2020,08,30,14,15,20.80
2020,08,30,14,16,20.80
2020,08,30,14,17,20.80
2020,08,30,14,18,20.70
2020,08,30,14,19,20.70
2020,08,30,14,20,20.70
2020,08,30,14,21,20.60
2020,08,30,14,22,20.60
2020,08,30,14,23,20.60
2020,08,30,14,24,20.50
2020,08,30,14,25,20.40
2020,08,30,14,26,20.40
2020,08,30,14,27,20.40
2020,08,30,14,28,20.40
2020,08,30,14,29,20.30
2020,08,30,14,30,20.30
2020,08,30,14,31,20.20
2020,08,30,14,32,20.20
2020,08,30,14,33,20.10
2020,08,30,14,35,20.00
2020,08,30,14,37,19.90
2020,08,30,14,38,19.90
2020,08,30,14,39,19.90
2020,08,30,14,40,19.90
2020,08,30,14,41,19.90
2020,08,30,14,42,19.90
2020,08,30,14,43,19.90
2020,08,30,14,45,19.80
2020,08,30,14,46,19.80
2020,08,30,14,47,19.80
2020,08,30,14,48,19.80
2020,08,30,14,49,19.80
2020,08,30,14,52,19.70
2020,08,30,14,53,19.70
2020,08,30,14,54,19.80
2020,08,30,14,55,19.70
2020,08,30,14,56,19.70
2020,08,30,14,57,19.70
2020,08,30,14,58,19.70
2020,08,30,14,59,19.70
2020,08,30,15,00,19.80
2020,08,30,15,01,19.80
2020,08,30,15,02,19.70
2020,08,30,15,03,19.70
2020,08,30,15,04,19.70
2020,08,30,15,05,19.80
2020,08,30,15,07,19.80
2020,08,30,15,08,19.80
2020,08,30,15,09,19.80
2020,08,30,15,10,19.80
2020,08,30,15,11,19.80
2020,08,30,15,12,19.80
2020,08,30,15,13,19.80
2020,08,30,15,14,19.80
2020,08,30,15,15,19.70
2020,08,30,15,16,19.70
2020,08,30,15,17,19.70
2020,08,30,15,18,19.70
2020,08,30,15,19,19.60
2020,08,30,15,20,19.60
2020,08,30,15,21,19.60
2020,08,30,15,22,19.60
2020,08,30,15,23,19.60
2020,08,30,15,24,19.60
2020,08,30,15,25,19.60
2020,08,30,15,26,19.50
2020,08,30,15,28,19.40
2020,08,30,15,29,19.30
2020,08,30,15,30,19.20
2020,08,30,15,31,19.10
2020,08,30,15,32,19.00
2020,08,30,15,33,18.90
2020,08,30,15,34,18.80
2020,08,30,15,35,18.70
2020,08,30,15,36,18.60
2020,08,30,15,37,18.50
2020,08,30,15,38,18.40
2020,08,30,15,39,18.30
2020,08,30,15,40,18.30
2020,08,30,15,41,18.20
2020,08,30,15,42,18.10
2020,08,30,15,43,17.90
2020,08,30,15,44,17.80
2020,08,30,15,45,17.70
2020,08,30,15,46,17.70
2020,08,30,15,47,17.60
2020,08,30,15,48,17.60
2020,08,30,15,49,17.40
2020,08,30,15,50,17.40
2020,08,30,15,51,17.30
2020,08,30,15,52,17.30
2020,08,30,15,53,17.30
2020,08,30,15,54,17.20
2020,08,30,15,55,17.10
2020,08,30,15,56,17.10
2020,08,30,15,57,17.00
2020,08,30,15,58,16.90
2020,08,30,15,59,16.90
2020,08,30,16,00,16.90
2020,08,30,16,01,16.90
2020,08,30,16,02,16.90
2020,08,30,16,03,16.90
2020,08,30,16,05,16.80
2020,08,30,16,07,16.80
2020,08,30,16,08,16.80
2020,08,30,16,09,16.70
2020,08,30,16,10,16.70
2020,08,30,16,11,16.70
2020,08,30,16,12,16.70
2020,08,30,16,13,16.60
2020,08,30,16,14,16.60
2020,08,30,16,15,16.60
2020,08,30,16,16,16.50
2020,08,30,16,17,16.40
2020,08,30,16,18,16.40
2020,08,30,16,19,16.40
2020,08,30,16,20,16.40
2020,08,30,16,21,16.40
2020,08,30,16,22,16.30
2020,08,30,16,23,16.30
2020,08,30,16,24,16.30
2020,08,30,16,25,16.30
2020,08,30,16,26,16.30
2020,08,30,16,27,16.30
2020,08,30,16,29,16.20
2020,08,30,16,30,16.20
2020,08,30,16,31,16.20
2020,08,30,16,32,16.20
2020,08,30,16,33,16.10
2020,08,30,16,34,16.10
2020,08,30,16,35,16.10
2020,08,30,16,36,16.10
2020,08,30,16,37,16.10
2020,08,30,16,39,16.00
2020,08,30,16,40,16.00
2020,08,30,16,41,16.00
2020,08,30,16,42,15.90
2020,08,30,16,43,16.00
2020,08,30,16,45,15.90
2020,08,30,16,46,15.90
2020,08,30,16,47,15.90
2020,08,30,16,48,15.90
2020,08,30,16,49,15.90
2020,08,30,16,50,15.90
2020,08,30,16,51,15.90
2020,08,30,16,52,15.90
2020,08,30,16,53,15.90
2020,08,30,16,54,15.90
2020,08,30,16,55,15.90
2020,08,30,16,56,15.90
2020,08,30,16,57,15.90
2020,08,30,16,58,15.90
2020,08,30,17,00,15.90
2020,08,30,17,01,15.90
2020,08,30,17,02,15.90
2020,08,30,17,03,15.90
2020,08,30,17,04,15.90
2020,08,30,17,05,15.90
2020,08,30,17,06,15.90
2020,08,30,17,07,15.90
2020,08,30,17,08,15.80
2020,08,30,17,09,15.80
2020,08,30,17,10,15.80
2020,08,30,17,11,15.80
2020,08,30,17,12,15.80
2020,08,30,17,13,15.80
2020,08,30,17,15,15.70
2020,08,30,17,16,15.70
2020,08,30,17,17,15.60
2020,08,30,17,18,15.60
2020,08,30,17,19,15.60
2020,08,30,17,20,15.60
2020,08,30,17,21,15.60
2020,08,30,17,22,15.60
2020,08,30,17,23,15.50
2020,08,30,17,24,15.40
2020,08,30,17,25,15.40
2020,08,30,17,26,15.40
2020,08,30,17,27,15.40
2020,08,30,17,28,15.40
2020,08,30,17,29,15.30
2020,08,30,17,30,15.30
2020,08,30,17,31,15.30
2020,08,30,17,32,15.30
2020,08,30,17,33,15.30
2020,08,30,17,34,15.30
2020,08,30,17,35,15.20
2020,08,30,17,36,15.20
2020,08,30,17,37,15.20
2020,08,30,17,38,15.20
2020,08,30,17,39,15.20
2020,08,30,17,40,15.20
2020,08,30,17,41,15.10
2020,08,30,17,43,15.10
2020,08,30,17,44,15.10
2020,08,30,17,45,15.10
2020,08,30,17,46,15.00
2020,08,30,17,47,15.00
2020,08,30,17,48,15.00
2020,08,30,17,49,15.00
2020,08,30,17,50,15.00
2020,08,30,17,51,15.00
2020,08,30,17,52,14.90
2020,08,30,17,53,14.90
2020,08,30,17,54,14.90
2020,08,30,17,55,14.90
2020,08,30,17,56,14.90
2020,08,30,17,57,14.80
2020,08,30,17,58,14.80
2020,08,30,17,59,14.80
2020,08,30,18,00,14.80
2020,08,30,18,01,14.70